DW8052 Weather Reports


time (UTC)temp
C
wind
direction
speed
KPH
gust
KPH
rain 1hr
cm
rain 24hr
cm
rain mn
cm
humidity
%
barometer
mb
20260906182716 14 227 11.3 12.9 0.00 0.00 0.00 81 1021.9
20260906182215 13 231 11.3 14.5 0.00 0.00 0.00 82 1022.1
20260906181715 13 245 12.9 14.5 0.00 0.00 0.00 82 1022.1
20260906180716 13 242 12.9 16.1 0.00 0.00 0.00 82 1022.0
20260906180215 13 250 11.3 14.5 0.00 0.00 0.00 82 1022.2
20260906175716 13 237 12.9 16.1 0.00 0.00 0.00 82 1022.0
20260906175216 13 235 12.9 16.1 0.00 0.00 0.00 82 1021.9
20260906174716 13 230 14.5 19.3 0.00 0.00 0.00 82 1021.9
20260906174215 13 238 14.5 19.3 0.00 0.00 0.00 82 1021.8
20260906173715 13 241 16.1 19.3 0.00 0.00 0.00 82 1022.0
20260906173216 13 239 14.5 19.3 0.00 0.00 0.00 82 1021.8
20260906172716 13 236 11.3 14.5 0.00 0.00 0.00 82 1022.1
20260906172215 13 233 11.3 14.5 0.00 0.00 0.00 82 1021.9
20260906171716 13 239 8.0 11.3 0.00 0.00 0.00 82 1022.1
20260906171216 13 242 11.3 12.9 0.00 0.00 0.00 81 1022.1
20260906170716 13 246 11.3 14.5 0.00 0.00 0.00 81 1022.1
20260906170215 13 245 9.7 14.5 0.00 0.00 0.00 81 1022.0
20260906165715 13 242 9.7 12.9 0.00 0.00 0.00 82 1022.0
20260906165216 13 241 9.7 12.9 0.00 0.00 0.00 81 1022.0
20260906164716 13 234 9.7 11.3 0.00 0.00 0.00 81 1022.0
20260906164216 13 243 9.7 14.5 0.00 0.00 0.00 81 1022.1
20260906163715 13 250 9.7 14.5 0.00 0.00 0.00 81 1022.1
20260906163216 14 257 9.7 14.5 0.00 0.00 0.00 81 1022.2
20260906162716 14 248 11.3 19.3 0.00 0.00 0.00 81 1022.1
20260906162215 14 247 11.3 14.5 0.00 0.00 0.00 80 1022.1
20260906161716 14 253 11.3 14.5 0.00 0.00 0.00 80 1022.1
20260906161216 14 254 8.0 9.7 0.00 0.00 0.00 80 1022.2
20260906160215 14 247 9.7 11.3 0.00 0.00 0.00 80 1022.2
20260906155716 14 251 9.7 16.1 0.00 0.00 0.00 80 1022.1
20260906155215 14 248 14.5 16.1 0.00 0.00 0.00 80 1022.2
20260906154715 14 260 12.9 14.5 0.00 0.00 0.00 79 1022.2
20260906154215 15 262 11.3 14.5 0.00 0.00 0.00 79 1022.2
20260906153215 15 256 8.0 12.9 0.00 0.00 0.00 79 1022.4
20260906152715 15 272 9.7 14.5 0.00 0.00 0.00 78 1022.7
20260906152216 15 272 11.3 11.3 0.00 0.00 0.00 78 1022.5
20260906151216 15 266 8.0 11.3 0.00 0.00 0.00 77 1022.8
20260906150715 15 269 8.0 11.3 0.00 0.00 0.00 76 1022.9
20260906150215 15 264 8.0 12.9 0.00 0.00 0.00 76 1022.8
20260906145715 15 258 9.7 11.3 0.00 0.00 0.00 76 1022.9
20260906145215 15 256 9.7 11.3 0.00 0.00 0.00 75 1022.6
20260906144715 16 241 9.7 11.3 0.00 0.00 0.00 75 1022.4
20260906144215 16 242 8.0 11.3 0.00 0.00 0.00 75 1022.7
20260906143715 16 250 8.0 11.3 0.00 0.00 0.00 75 1022.6
20260906142215 16 232 8.0 9.7 0.00 0.00 0.00 74 1022.5
20260906141715 16 259 6.4 8.0 0.00 0.00 0.00 74 1022.6
20260906141215 16 263 8.0 8.0 0.00 0.00 0.00 74 1022.7
20260906140215 16 218 6.4 9.7 0.00 0.00 0.00 74 1022.4
20260906135715 16 244 9.7 14.5 0.00 0.00 0.00 74 1022.7
20260906135215 16 213 9.7 14.5 0.00 0.00 0.00 74 1022.3
20260906134715 16 195 11.3 16.1 0.00 0.00 0.00 74 1022.2
20260906134215 16 186 9.7 14.5 0.00 0.00 0.00 73 1022.2
20260906133715 16 189 11.3 19.3 0.00 0.00 0.00 73 1022.3
20260906133215 16 180 16.1 24.1 0.00 0.00 0.00 73 1022.4
20260906132715 16 184 14.5 20.9 0.00 0.00 0.00 73 1022.2
20260906132216 16 184 11.3 20.9 0.00 0.00 0.00 73 1022.3
20260906131215 16 157 14.5 22.5 0.00 0.00 0.00 73 1022.6
20260906130715 16 172 9.7 20.9 0.00 0.00 0.00 73 1022.3
20260906130214 16 173 11.3 20.9 0.00 0.00 0.00 73 1022.3
20260906125215 16 176 14.5 19.3 0.00 0.00 0.00 73 1022.4
20260906124715 16 184 11.3 22.5 0.00 0.00 0.00 73 1022.5
20260906124215 16 172 14.5 25.7 0.00 0.00 0.00 73 1022.4
20260906123715 16 173 14.5 20.9 0.00 0.00 0.00 73 1022.3
20260906123215 16 168 14.5 22.5 0.00 0.00 0.00 73 1022.4
20260906122715 16 163 17.7 27.4 0.00 0.00 0.00 72 1022.5
20260906122215 16 169 14.5 25.7 0.00 0.00 0.00 72 1022.3
20260906121715 16 164 17.7 27.4 0.00 0.00 0.00 72 1022.2
20260906121215 16 170 14.5 27.4 0.00 0.00 0.00 72 1022.2
20260906120714 16 173 16.1 27.4 0.00 0.00 0.00 72 1022.2
20260906120215 16 158 14.5 25.7 0.00 0.00 0.00 72 1022.2
20260906115715 16 169 16.1 24.1 0.00 0.00 0.00 72 1022.3
20260906115214 16 159 14.5 33.8 0.00 0.00 0.00 72 1022.1
20260906114715 16 168 16.1 25.7 0.00 0.00 0.00 71 1022.1
20260906114215 16 166 14.5 32.2 0.00 0.00 0.00 71 1022.1
20260906113215 16 175 14.5 29.0 0.00 0.00 0.00 71 1022.3
20260906112715 16 186 17.7 32.2 0.00 0.00 0.00 71 1022.2
20260906112214 16 180 17.7 32.2 0.00 0.00 0.00 71 1022.3
20260906111715 16 172 14.5 32.2 0.00 0.00 0.00 71 1022.3
20260906111215 16 176 16.1 27.4 0.00 0.00 0.00 71 1022.3
20260906110715 16 181 20.9 33.8 0.00 0.00 0.00 70 1022.2
20260906110215 16 175 22.5 35.4 0.00 0.00 0.00 70 1022.1
20260906105214 16 175 22.5 38.6 0.00 0.00 0.00 71 1021.9
20260906104714 16 185 22.5 38.6 0.00 0.00 0.00 71 1022.0
20260906104215 16 181 19.3 35.4 0.00 0.00 0.00 71 1021.8
20260906103715 17 179 24.1 33.8 0.00 0.00 0.00 71 1022.0
20260906103214 17 181 17.7 29.0 0.00 0.00 0.00 71 1021.7
20260906102715 17 171 22.5 32.2 0.00 0.00 0.00 71 1021.9
20260906102215 17 173 20.9 33.8 0.00 0.00 0.00 71 1021.7
20260906101715 17 171 14.5 25.7 0.00 0.00 0.00 70 1021.6
20260906101215 17 182 17.7 32.2 0.00 0.00 0.00 70 1021.5
20260906100715 17 177 16.1 29.0 0.00 0.00 0.00 70 1021.6
20260906100214 17 174 20.9 32.2 0.00 0.00 0.00 70 1021.3
20260906095714 17 176 19.3 35.4 0.00 0.00 0.00 70 1021.3
20260906095215 17 181 25.7 40.2 0.00 0.00 0.00 69 1021.2
20260906094714 17 174 20.9 37.0 0.00 0.00 0.00 69 1021.1
20260906094214 17 181 20.9 33.8 0.00 0.00 0.00 69 1021.0
20260906093715 17 162 25.7 41.8 0.00 0.00 0.00 69 1020.9
20260906093214 17 169 22.5 38.6 0.00 0.00 0.00 68 1020.8
20260906092714 17 184 24.1 41.8 0.00 0.00 0.00 69 1020.8
20260906092214 17 177 27.4 37.0 0.00 0.00 0.00 69 1020.7
20260906091714 17 173 27.4 45.1 0.00 0.00 0.00 69 1020.6
20260906091214 17 170 25.7 35.4 0.00 0.00 0.00 69 1020.8
20260906090715 17 177 20.9 38.6 0.00 0.00 0.00 69 1020.7
20260906090214 17 162 22.5 32.2 0.00 0.00 0.00 69 1020.5
20260906085714 17 168 25.7 35.4 0.00 0.00 0.00 68 1020.5
20260906085215 17 171 30.6 40.2 0.00 0.00 0.00 68 1020.5
20260906084715 17 162 27.4 41.8 0.00 0.00 0.00 67 1020.4
20260906083215 17 165 20.9 32.2 0.00 0.00 0.00 68 1020.4
20260906082714 17 172 27.4 40.2 0.00 0.00 0.00 68 1020.3
20260906082214 17 165 22.5 32.2 0.00 0.00 0.00 69 1020.2
20260906081214 17 172 25.7 38.6 0.00 0.00 0.00 69 1020.3
20260906080714 17 168 22.5 33.8 0.00 0.00 0.00 68 1020.0
20260906080215 17 173 25.7 35.4 0.00 0.00 0.00 68 1019.8
20260906075714 17 170 29.0 38.6 0.00 0.00 0.00 67 1019.7
20260906075215 17 168 20.9 35.4 0.00 0.00 0.00 68 1019.7
20260906074714 17 164 22.5 33.8 0.00 0.00 0.00 67 1019.8
20260906074215 17 174 22.5 32.2 0.00 0.00 0.00 67 1019.6
20260906073215 17 170 19.3 32.2 0.00 0.00 0.00 66 1019.5
20260906072715 18 158 24.1 37.0 0.00 0.00 0.00 66 1019.2
20260906072214 18 153 22.5 37.0 0.00 0.00 0.00 66 1019.4
20260906071214 18 155 19.3 37.0 0.00 0.00 0.00 64 1019.2
20260906070714 18 164 27.4 38.6 0.00 0.00 0.00 63 1019.0
20260906065714 18 161 22.5 33.8 0.00 0.00 0.00 61 1019.0
20260906065214 18 155 20.9 35.4 0.00 0.00 0.00 61 1018.8
20260906064714 19 148 22.5 35.4 0.00 0.00 0.00 60 1018.8
20260906064214 19 152 16.1 32.2 0.00 0.00 0.00 58 1018.9
20260906063714 19 153 20.9 33.8 0.00 0.00 0.00 57 1018.7
20260906063214 20 151 19.3 29.0 0.00 0.03 0.00 56 1018.7
20260906062714 20 161 20.9 27.4 0.00 0.05 0.00 55 1018.7
20260906062214 20 152 19.3 27.4 0.00 0.05 0.00 54 1018.6
20260906061215 20 141 25.7 33.8 0.00 0.05 0.00 50 1018.7
20260906055714 20 153 20.9 29.0 0.00 0.05 0.00 51 1018.5
20260906055215 19 141 19.3 32.2 0.00 0.05 0.00 50 1018.4
20260906054714 19 165 20.9 33.8 0.00 0.05 0.00 50 1018.3
20260906054214 20 158 25.7 35.4 0.00 0.05 0.00 49 1018.1
20260906053714 20 149 24.1 33.8 0.00 0.05 0.00 50 1018.0
20260906053214 20 149 24.1 32.2 0.00 0.05 0.00 48 1018.0
20260906052714 20 150 22.5 32.2 0.00 0.05 0.00 47 1017.9
20260906052215 20 153 22.5 32.2 0.00 0.05 0.00 47 1017.9
20260906051714 20 163 25.7 32.2 0.00 0.05 0.00 46 1017.8
20260906051214 20 156 20.9 32.2 0.00 0.05 0.00 48 1017.6
20260906050714 20 166 20.9 33.8 0.00 0.05 0.00 45 1018.0
20260906050214 20 159 19.3 32.2 0.00 0.05 0.00 44 1017.7
20260906045714 20 153 19.3 27.4 0.00 0.05 0.00 44 1017.5
20260906044714 20 141 14.5 24.1 0.00 0.05 0.00 44 1017.5
20260906043714 20 153 12.9 22.5 0.00 0.05 0.00 44 1017.4
20260906042714 21 130 12.9 22.5 0.00 0.05 0.00 40 1017.2
20260906042214 21 119 11.3 20.9 0.00 0.05 0.00 40 1017.1
20260906041714 21 156 12.9 22.5 0.00 0.05 0.00 39 1017.0
20260906041214 21 149 14.5 20.9 0.00 0.05 0.00 40 1017.1
20260906040714 21 140 12.9 22.5 0.00 0.05 0.00 41 1017.1
20260906035714 21 148 16.1 24.1 0.00 0.05 0.00 41 1017.1
20260906035214 21 141 16.1 24.1 0.00 0.05 0.00 40 1017.0
20260906034714 21 113 14.5 25.7 0.00 0.05 0.00 39 1017.0
20260906034214 21 138 16.1 24.1 0.00 0.05 0.00 38 1016.9
20260906033713 21 146 16.1 27.4 0.00 0.05 0.00 38 1016.8
20260906033214 21 145 12.9 22.5 0.00 0.05 0.00 38 1016.9
20260906032713 21 142 16.1 27.4 0.00 0.05 0.00 39 1017.0
20260906032214 21 140 19.3 32.2 0.00 0.05 0.00 38 1016.9
20260906030714 21 154 19.3 27.4 0.00 0.05 0.00 38 1016.8
20260906030214 21 147 20.9 32.2 0.00 0.05 0.00 37 1016.8
20260906025714 21 145 16.1 27.4 0.00 0.05 0.00 37 1016.9
20260906025214 21 159 20.9 32.2 0.00 0.05 0.00 36 1016.8
20260906024714 21 150 19.3 32.2 0.00 0.05 0.00 37 1016.9
20260906024214 21 145 22.5 33.8 0.00 0.05 0.00 36 1017.0
20260906023714 21 166 20.9 33.8 0.00 0.05 0.00 35 1016.9
20260906022714 21 158 20.9 33.8 0.00 0.05 0.00 35 1016.8
20260906022214 21 156 17.7 33.8 0.00 0.05 0.00 36 1016.8
20260906021714 22 161 16.1 32.2 0.00 0.05 0.00 36 1017.0
20260906021213 22 172 19.3 32.2 0.00 0.05 0.00 34 1016.9
20260906020713 22 157 22.5 32.2 0.00 0.05 0.00 34 1016.9
20260906020214 22 151 16.1 29.0 0.00 0.05 0.00 33 1016.8
20260906015714 22 151 9.7 33.8 0.00 0.05 0.00 34 1016.7
20260906014714 22 171 19.3 33.8 0.00 0.05 0.00 33 1016.8
20260906013713 21 186 27.4 37.0 0.00 0.05 0.00 32 1016.7
20260906013213 21 180 19.3 37.0 0.00 0.05 0.00 33 1016.7
20260906012713 22 182 22.5 41.8 0.00 0.05 0.00 33 1016.7
20260906011713 22 179 19.3 33.8 0.00 0.05 0.00 33 1016.8
20260906011213 21 198 16.1 37.0 0.00 0.05 0.00 33 1017.0
20260906010714 21 200 27.4 41.8 0.00 0.05 0.00 33 1016.8
20260906010214 21 215 20.9 33.8 0.00 0.05 0.00 32 1016.9
20260906005714 21 210 17.7 32.2 0.00 0.05 0.00 33 1017.1
20260906005213 21 192 20.9 37.0 0.00 0.05 0.00 33 1016.7
20260906004714 21 203 11.3 25.7 0.00 0.05 0.00 33 1016.7
20260906001714 20 245 19.3 32.2 0.00 0.05 0.00 37 1016.6
20260906001213 20 270 14.5 20.9 0.00 0.05 0.00 38 1016.6
20260905235713 19 267 19.3 32.2 0.00 0.05 0.00 38 1016.3
20260905234713 18 279 16.1 35.4 0.00 0.05 0.00 40 1016.3
20260905234213 18 276 19.3 29.0 0.00 0.05 0.00 39 1016.6
20260905233214 18 288 19.3 29.0 0.00 0.05 0.00 40 1016.3
20260905232713 18 281 14.5 27.4 0.00 0.05 0.00 41 1016.2
20260905232213 18 259 16.1 32.2 0.00 0.05 0.00 42 1016.2
20260905231714 17 269 22.5 33.8 0.00 0.05 0.00 42 1016.1
20260905231213 18 266 32.2 40.2 0.00 0.05 0.00 41 1016.0
20260905230714 17 259 20.9 35.4 0.00 0.05 0.00 43 1016.3
20260905230213 17 258 25.7 33.8 0.00 0.05 0.00 43 1016.0
20260905225213 17 270 25.7 33.8 0.00 0.05 0.00 43 1016.2
20260905224713 17 253 30.6 41.8 0.00 0.05 0.00 43 1016.2
20260905224214 17 280 25.7 37.0 0.00 0.05 0.00 44 1016.0
20260905223713 16 267 29.0 38.6 0.00 0.05 0.00 45 1015.9
20260905223213 16 268 33.8 48.3 0.00 0.05 0.00 45 1015.7
20260905222713 16 279 32.2 41.8 0.00 0.05 0.00 45 1015.6
20260905222213 16 270 35.4 46.7 0.00 0.05 0.00 45 1015.5
20260905221213 16 267 38.6 49.9 0.00 0.05 0.00 45 1015.4
20260905220713 16 256 30.6 46.7 0.00 0.05 0.00 46 1015.2
20260905220214 16 271 33.8 45.1 0.00 0.05 0.00 45 1015.3
20260905215713 16 270 29.0 45.1 0.00 0.05 0.00 46 1015.4
20260905215213 16 270 25.7 45.1 0.00 0.05 0.00 46 1015.5
20260905213713 16 268 25.7 41.8 0.00 0.05 0.00 46 1015.1
20260905213213 16 263 27.4 46.7 0.00 0.05 0.00 46 1014.9
20260905212713 16 270 20.9 37.0 0.00 0.05 0.00 47 1014.7
20260905212213 15 261 27.4 45.1 0.00 0.05 0.00 47 1014.8
20260905211213 15 266 19.3 40.2 0.00 0.05 0.00 48 1014.4
20260905210713 15 275 24.1 57.9 0.00 0.05 0.00 47 1014.3
20260905210213 15 270 41.8 61.2 0.00 0.05 0.00 47 1014.2
20260905205713 15 261 35.4 56.3 0.00 0.05 0.00 47 1014.2
20260905205213 15 267 35.4 53.1 0.00 0.05 0.00 48 1014.2
20260905204712 15 265 29.0 41.8 0.00 0.05 0.00 48 1013.9
20260905204213 15 263 29.0 40.2 0.00 0.05 0.00 49 1013.8
20260905203713 15 263 30.6 46.7 0.00 0.05 0.00 49 1013.8
20260905203214 15 259 29.0 41.8 0.00 0.05 0.00 50 1013.9
20260905202713 15 261 32.2 41.8 0.00 0.05 0.00 49 1013.4
20260905201713 15 264 30.6 38.6 0.00 0.05 0.00 50 1013.7
20260905201213 15 247 25.7 32.2 0.00 0.05 0.00 49 1013.7
20260905200213 15 219 20.9 32.2 0.00 0.05 0.00 48 1013.5
20260905195713 15 214 17.7 27.4 0.00 0.05 0.00 48 1013.6
20260905195213 15 239 19.3 32.2 0.00 0.05 0.00 49 1013.5
20260905194713 15 262 20.9 33.8 0.00 0.05 0.00 48 1013.3
20260905194213 15 249 14.5 29.0 0.00 0.05 0.00 47 1013.1
20260905193713 15 244 22.5 25.7 0.00 0.05 0.00 47 1013.1
20260905192713 15 207 6.4 19.3 0.00 0.05 0.00 47 1013.3
20260905192213 15 186 9.7 19.3 0.00 0.05 0.00 48 1013.3
20260905191713 15 201 16.1 27.4 0.00 0.05 0.00 48 1013.0
20260905191213 15 252 19.3 27.4 0.00 0.05 0.00 47 1012.9
20260905190713 15 276 16.1 41.8 0.00 0.05 0.00 47 1012.3
20260905190213 15 282 27.4 46.7 0.00 0.05 0.00 46 1012.3
20260905185713 15 276 29.0 45.1 0.00 0.05 0.00 46 1012.0
20260905185212 15 274 22.5 38.6 0.00 0.05 0.00 46 1012.5
20260905184713 15 276 22.5 38.6 0.00 0.05 0.00 46 1012.1
20260905183713 16 277 25.7 37.0 0.00 0.05 0.00 45 1011.8